NI2O Weather Reports


time (UTC)temp
C
wind
direction
speed
KPH
gust
KPH
rain 1hr
cm
rain 24hr
cm
rain mn
cm
humidity
%
barometer
mb
20260505121911 17 218 11.3 17.7 0.00 0.00 0.00 62 1010.9
20260505120857 17 242 4.8 14.5 0.00 0.00 0.00 63 1010.6
20260505115845 16 198 11.3 24.1 0.00 0.00 0.00 64 1010.7
20260505114829 16 266 4.8 17.7 0.00 0.00 0.00 65 1010.8
20260505113815 16 204 3.2 4.8 0.00 0.00 0.00 66 1010.8
20260505112802 16 221 8.0 17.7 0.00 0.00 0.00 66 1010.6
20260505111750 16 219 6.4 14.5 0.00 0.00 0.00 67 1010.3
20260505110835 16 213 6.4 11.3 0.00 0.00 0.00 67 1010.5
20260505102129 15 224 3.2 11.3 0.00 0.00 0.00 69 1010.1
20260505101115 15 205 3.2 6.4 0.00 0.00 0.00 69 1010.0
20260505095048 15 214 4.8 11.3 0.00 0.00 0.00 69 1009.9
20260505094035 15 182 3.2 4.8 0.00 0.00 0.00 69 1009.9
20260505093021 16 180 6.4 9.7 0.00 0.00 0.00 68 1009.8
20260505092008 16 229 1.6 6.4 0.00 0.00 0.00 69 1009.7
20260505090954 15 192 9.7 12.9 0.00 0.00 0.00 69 1009.8
20260505085940 15 220 3.2 6.4 0.00 0.00 0.00 69 1009.9
20260505084926 15 207 6.4 9.7 0.00 0.00 0.00 70 1009.7
20260505083913 15 222 3.2 4.8 0.00 0.00 0.00 70 1009.8
20260505082859 15 197 1.6 6.4 0.00 0.00 0.00 70 1010.3
20260505081846 15 219 6.4 9.7 0.00 0.00 0.00 70 1009.8
20260505080833 15 205 4.8 11.3 0.00 0.00 0.00 70 1009.8
20260505075817 15 207 3.2 11.3 0.00 0.00 0.00 70 1009.8
20260505074804 15 0.0 3.2 0.00 0.00 0.00 69 1009.6
20260505073751 15 185 6.4 6.4 0.00 0.00 0.00 69 1010.0
20260505072756 15 184 0.0 6.4 0.00 0.00 0.00 69 1009.9
20260505071723 15 207 1.6 6.4 0.00 0.00 0.00 68 1009.7
20260505070708 15 169 4.8 9.7 0.00 0.00 0.00 68 1009.9
20260505065654 15 209 1.6 9.7 0.00 0.00 0.00 68 1009.7
20260505064641 15 205 3.2 6.4 0.00 0.00 0.00 69 1009.8
20260505064154 15 209 1.6 4.8 0.00 0.00 0.00 69 1009.9
20260505063120 15 212 3.2 4.8 0.00 0.00 0.00 68 1009.8
20260505062106 15 197 3.2 4.8 0.00 0.00 0.00 68 1009.8
20260505061052 15 195 3.2 3.2 0.00 0.00 0.00 68 1010.0
20260505060038 15 217 4.8 6.4 0.00 0.00 0.00 67 1009.8
20260505055045 15 161 6.4 9.7 0.00 0.00 0.00 66 1010.0
20260505054012 15 204 3.2 6.4 0.00 0.00 0.00 65 1009.9
20260505052958 15 200 3.2 4.8 0.00 0.00 0.00 64 1010.0
20260505051944 15 196 3.2 6.4 0.00 0.00 0.00 63 1009.9
20260505050931 15 192 8.0 11.3 0.00 0.00 0.00 62 1010.1
20260505040809 16 205 6.4 6.4 0.00 0.00 0.00 55 1009.8
20260505035755 16 186 3.2 4.8 0.00 0.00 0.00 54 1009.7
20260505034742 16 203 4.8 11.3 0.00 0.00 0.00 54 1009.6
20260505033747 16 205 4.8 11.3 0.00 0.00 0.00 53 1009.7
20260505032713 16 198 3.2 12.9 0.00 0.00 0.00 52 1009.9
20260505031659 16 188 4.8 6.4 0.00 0.00 0.00 52 1010.0
20260505030644 17 172 3.2 9.7 0.00 0.00 0.00 51 1009.8
20260505025630 17 182 3.2 12.9 0.00 0.00 0.00 51 1009.7
20260505024617 17 189 4.8 6.4 0.00 0.00 0.00 51 1009.9
20260505023603 17 179 4.8 9.7 0.00 0.00 0.00 50 1010.0
20260505023058 17 198 1.6 4.8 0.00 0.00 0.00 51 1010.2
20260505022039 17 190 3.2 4.8 0.00 0.00 0.00 49 1010.2
20260505021022 17 203 1.6 6.4 0.00 0.00 0.00 49 1010.1
20260505020008 18 181 4.8 6.4 0.00 0.00 0.00 49 1010.2
20260505014954 18 204 6.4 9.7 0.00 0.00 0.00 49 1010.1
20260505013940 18 180 6.4 12.9 0.00 0.00 0.00 48 1010.0
20260505012926 18 179 3.2 6.4 0.00 0.00 0.00 48 1010.0
20260505011913 18 168 3.2 4.8 0.00 0.00 0.00 48 1009.9
20260505010859 18 173 3.2 6.4 0.00 0.00 0.00 47 1009.7
20260505005845 18 215 4.8 6.4 0.00 0.00 0.00 46 1009.8
20260505004831 18 191 3.2 4.8 0.00 0.00 0.00 46 1009.4
20260505003817 18 189 0.0 4.8 0.00 0.00 0.00 45 1009.4
20260505002824 19 183 3.2 4.8 0.00 0.00 0.00 44 1009.3
20260505001749 19 197 1.6 4.8 0.00 0.00 0.00 43 1009.3
20260505000735 20 188 1.6 4.8 0.00 0.00 0.00 42 1009.3
20260504235722 20 188 3.2 4.8 0.00 0.00 0.00 41 1009.2
20260504234708 20 173 9.7 14.5 0.00 0.00 0.00 40 1009.3
20260504233655 21 189 6.4 9.7 0.00 0.00 0.00 39 1009.2
20260504233208 21 195 4.8 6.4 0.00 0.00 0.00 39 1009.4
20260504232134 21 184 3.2 14.5 0.00 0.00 0.00 38 1009.0
20260504231121 21 240 6.4 9.7 0.00 0.00 0.00 38 1009.0
20260504230107 21 216 9.7 11.3 0.00 0.00 0.00 37 1009.3
20260504225053 22 208 4.8 16.1 0.00 0.00 0.00 37 1009.0
20260504224039 21 210 6.4 11.3 0.00 0.00 0.00 37 1009.2
20260504223026 22 179 3.2 11.3 0.00 0.00 0.00 36 1009.2
20260504222032 22 242 6.4 12.9 0.00 0.00 0.00 36 1009.3
20260504220959 22 214 8.0 11.3 0.00 0.00 0.00 35 1009.3
20260504215945 22 182 8.0 20.9 0.00 0.00 0.00 35 1009.3
20260504214952 22 237 4.8 11.3 0.00 0.00 0.00 35 1009.4
20260504213918 22 201 9.7 17.7 0.00 0.00 0.00 35 1009.3
20260504212905 22 197 8.0 14.5 0.00 0.00 0.00 35 1009.3
20260504211850 21 162 6.4 12.9 0.00 0.00 0.00 37 1009.4
20260504210857 22 235 4.8 14.5 0.00 0.00 0.00 36 1009.4
20260504205824 22 204 8.0 20.9 0.00 0.00 0.00 36 1009.2
20260504204810 22 222 8.0 16.1 0.00 0.00 0.00 36 1009.4
20260504203756 22 241 8.0 14.5 0.00 0.00 0.00 35 1009.2
20260504202742 21 209 6.4 11.3 0.00 0.00 0.00 36 1009.5
20260504201728 22 203 11.3 17.7 0.00 0.00 0.00 35 1009.2
20260504200714 22 192 6.4 20.9 0.00 0.00 0.00 35 1009.7
20260504195701 21 235 11.3 20.9 0.00 0.00 0.00 35 1009.5
20260504194707 22 212 6.4 11.3 0.00 0.00 0.00 36 1009.6
20260504193633 21 251 4.8 12.9 0.00 0.00 0.00 36 1009.9
20260504193146 21 244 9.7 12.9 0.00 0.00 0.00 36 1010.0
20260504192112 22 207 12.9 22.5 0.00 0.00 0.00 35 1010.0
20260504191059 22 144 6.4 12.9 0.00 0.00 0.00 36 1010.1
20260504190044 21 220 6.4 11.3 0.00 0.00 0.00 35 1010.4
20260504185031 21 251 11.3 17.7 0.00 0.00 0.00 36 1010.6
20260504184017 22 248 6.4 16.1 0.00 0.00 0.00 35 1010.4
20260504183004 21 216 11.3 24.1 0.00 0.00 0.00 36 1010.9
20260504181949 21 245 9.7 12.9 0.00 0.00 0.00 37 1010.8
20260504180936 21 196 8.0 12.9 0.00 0.00 0.00 35 1010.9
20260504175922 21 244 16.1 20.9 0.00 0.00 0.00 35 1011.2
20260504174909 20 193 6.4 16.1 0.00 0.00 0.00 36 1011.3
20260504173855 21 256 4.8 14.5 0.00 0.00 0.00 35 1011.4
20260504172900 20 230 11.3 14.5 0.00 0.00 0.00 37 1011.5
20260504171827 20 175 9.7 16.1 0.00 0.00 0.00 36 1011.7
20260504170812 20 193 6.4 16.1 0.00 0.00 0.00 36 1011.9
20260504151029 18 237 6.4 16.1 0.00 0.00 0.00 43 1012.9
20260504140907 16 185 3.2 4.8 0.00 0.00 0.00 52 1013.2
20260504130743 13 165 6.4 17.7 0.00 0.00 0.00 62 1013.8